sat.trackr.live / text

‹ back to catalog

STARLINK-4253

NORAD 53004 · 2022-076U

PAYLOAD ACTIVE UNKNOWN

§ Identity

Operator
Country
US
Launch date
2022-07-07
Launch site
AFETR
Launch vehicle
Mass (kg)
RCS (m²)

Purposes: comms

External: N2YO · Heavens-Above · Gunter

§ Orbital elements

Epoch: 2026-09-19T19:53:41.447616Z

Period
94.01 min
Inclination
53.1602°
Eccentricity
0.0001265
Mean motion
15.31701293 rev/d
Perigee alt
469.9 km
Apogee alt
471.6 km
Semi-major
6,848.9 km
B*
1.6658e-5
RAAN
294.9445°
Arg perigee
83.0881°
Mean anomaly
277.0264°
Rev number
23,225

§ Raw data

STARLINK-42531 53004U 22076U   26262.82895194  .00000152  00000+0  16658-4 0  99902 53004  53.1602 294.9445 0001265  83.0881 277.0264 15.31701293232254

JSON: /api/v1/satellites/53004 · /tle

For live sub-satellite position, see the globe view (requires WebGL).

§ Visibility from observer

Set your observer location to see the next 7 days of passes ≥ 10°. The values pass through the URL so the page stays shareable.

No JS? Fill the form by hand. The geolocation button needs JavaScript.